{"data":{"norad_id":51746,"intl_designator":"2022-016AJ","name":"STARLINK-3502","alt_names":[],"object_type":"PAYLOAD","status":"ACTIVE","operator":null,"country":"US","launch_date":"2022-02-21","launch_site_code":"AFETR","launch_vehicle":null,"mission":null,"orbit_class":"UNKNOWN","rcs_meters":null,"size_class":null,"mass_kg":null,"dimensions":null,"purposes":["comms"],"wikipedia_slug":null,"has_3d_model":false,"image_url":null,"decayed_at":null,"tle_current":{"epoch":"2026-05-24T19:50:01.288320Z","epoch_age_seconds":93353,"freshness":"FRESH","line1":"1 51746U 22016AJ  26144.82640380 -.00000886  00000+0 -37559-4 0  9998","line2":"2 51746  53.2141 327.3400 0001358  95.0630 265.0518 15.08847531235199","mean_motion":15.08847531,"eccentricity":0.0001358,"inclination_deg":53.2141,"raan_deg":327.34,"arg_perigee_deg":95.063,"mean_anomaly_deg":265.0518,"bstar":-3.7559e-5,"rev_number":23519,"period_min":95.4370783273,"perigee_km":538.78092477485,"apogee_km":540.65981483649,"semimajor_km":6917.8573698057,"source":"CELESTRAK","updated_at":"2026-05-25T13:38:16.946185Z"}}}